This is the latest recevied weather packets stored in our database for station/object KA8DUX-2. If no packets are shown the sender has not sent any weather packets the latest 10 day(s).
| Time | Temp. | Humidity | Pressure | Rain* | Wind** | Luminosity | Snow |
|---|---|---|---|---|---|---|---|
| 1777634455 | 3.33° C | 72% | 1012.9 hPa | 0 mm | - | 25 W/m² | - |
| 1777634152 | 3.33° C | 72% | 1012.8 hPa | 0 mm | - | 18 W/m² | - |
| 1777633849 | 3.33° C | 72% | 1013 hPa | 0 mm | - | 14 W/m² | - |
| 1777633546 | 3.33° C | 71% | 1012.9 hPa | 0 mm | - | 11 W/m² | - |
| 1777633244 | 3.33° C | 72% | 1012.9 hPa | 0 mm | - | 8 W/m² | - |
| 1777632941 | 3.33° C | 74% | 1012.9 hPa | 0 mm | - | 5 W/m² | - |
| 1777632637 | 3.33° C | 73% | 1012.9 hPa | 0 mm | - | 3 W/m² | - |
| 1777632334 | 3.33° C | 73% | 1012.9 hPa | 0 mm | - | 3 W/m² | - |
| 1777632031 | 3.33° C | 72% | 1012.6 hPa | 0 mm | - | 1 W/m² | - |
| 1777631729 | 3.33° C | 73% | 1013 hPa | 0 mm | - | 0 W/m² | - |
| 1777631427 | 3.33° C | 73% | 1012.8 hPa | 0 mm | - | 0 W/m² | - |
| 1777631123 | 3.33° C | 73% | 1012.8 hPa | 0 mm | - | 0 W/m² | - |
| 1777630820 | 3.33° C | 72% | 1012.7 hPa | 0 mm | - | 0 W/m² | - |
| 1777630516 | 3.33° C | 73% | 1012.7 hPa | 0 mm | - | 0 W/m² | - |
| 1777630213 | 3.33° C | 72% | 1013 hPa | 0 mm | - | 0 W/m² | - |
| 1777629911 | 3.33° C | 72% | 1012.8 hPa | 0 mm | - | 0 W/m² | - |
| 1777629609 | 3.33° C | 72% | 1012.5 hPa | 0 mm | - | 0 W/m² | - |
| 1777629304 | 3.33° C | 72% | 1012.7 hPa | 0 mm | - | 0 W/m² | - |
| 1777629000 | 3.33° C | 72% | 1012.6 hPa | 0 mm | - | 0 W/m² | - |
| 1777628697 | 3.89° C | 71% | 1012.6 hPa | 0 mm | - | 0 W/m² | - |
| 1777628393 | 3.89° C | 70% | 1012.7 hPa | 0 mm | - | 0 W/m² | - |
| 1777628089 | 3.89° C | 70% | 1012.8 hPa | 0 mm | - | 0 W/m² | - |
| 1777627785 | 3.89° C | 70% | 1012.9 hPa | 0 mm | - | 0 W/m² | - |
| 1777627484 | 3.89° C | 70% | 1012.7 hPa | 0 mm | - | 0 W/m² | - |
| 1777627180 | 3.89° C | 69% | 1012.7 hPa | 0 mm | - | 0 W/m² | - |
* Rain latest hour (hover to see other rain measurements)
** Current wind speed in m/s (hover to see current wind gust speed)